Regional Weather Roundup
Issued by NWS

Home | Current Version | Previous Version | Text Only | Print | Product List | Glossary On
Versions: 1 2 3 4 5 6 7 8 9 10 11 12 13 14 15 16 17 18 19 20 21 22 23 24 25 26 27 28 29 30 31 32 33 34 35 36 37 38 39 40 41 42 43 44 45 46 47 48 49 50
920
ASCA42 TJSJ 101510
RWRPR
PUERTO RICO/U.S. VIRGIN ISLANDS HOURLY WEATHER ROUNDUP
NATIONAL WEATHER SERVICE SAN JUAN PR
1100 AM AST SAT DEC 10 2016

PRZ001>002-007>008-010-101600-
PUERTO RICO

CITY           SKY/WX    TMP DP  RH WIND       PRES   REMARKS
SAN JUAN LMM   PTSUNNY   84  75  74 E10       30.10F HX  92
MAYAGUEZ       MOSUNNY   82  70  65 NE7       30.09S
AGUADILLA      MOSUNNY   84  73  70 E10       30.11F HX  91
CEIBA          MOSUNNY   84  75  74 NE7       30.12F HX  92
$$

VIZ001>002-101600-
U.S. VIRGIN ISLANDS

CITY           SKY/WX    TMP DP  RH WIND       PRES   REMARKS
CHARLOTTE AMA  MOSUNNY   84  75  74 SE12      30.09F HX  92
CHRISTIANSTED  MOSUNNY   86  73  66 E15G21    30.10S HX  93
$$

HOURLY WEATHER ROUNDUP FOR THE NEWS MEDIA

CITY           SKY/WX    TMP DP  RH WIND       PRES   REMARKS
ORLANDO        SUNNY     61  50  67 N9        30.38R
NEW YORK       PTSUNNY   34  20  56 W13       30.42S WCI  25
NEWARK         PTSUNNY   33  22  63 W13       30.41S WCI  24
CHICAGO        PTSUNNY   19  13  77 W10       30.52R WCI   7
HARTFORD       MOSUNNY   26   6  42 NW10G22   30.32R WCI  16
BOSTON         MOSUNNY   24   7  48 NW16G23   30.31S WCI  11
DALLAS         CLOUDY    40  25  55 S13       30.47R WCI  32
PHILADELPHIA   MOSUNNY   34  17  50 NW18      30.46S WCI  23
LOS ANGELES    MOCLDY    54  53  97 E6        30.18R FOG
WASHINGTON DC  MOSUNNY   33  12  41 NW14      30.51R WCI  23



USA.gov is the U.S. government's official web portal to all federal, state and local government web resources and services.